Regional Weather Roundup
Issued by NWS Huntsville, AL

Home | Current Version | Previous Version | Text Only | Print | Product List | Glossary On
Versions: 1 2 3 4 5 6 7 8 9 10 11 12 13 14 15 16 17 18 19 20 21 22 23 24 25 26 27 28 29 30 31 32 33 34 35 36 37 38 39 40 41 42 43 44 45 46 47 48 49 50
000
ASUS44 KHUN 210910
RWRHUN

WEATHER ROUNDUP FOR THE TENNESSEE VALLEY
NATIONAL WEATHER SERVICE HUNTSVILLE AL
300 AM CST TUE FEB 21 2017

ALZ001>004-211000-
NORTHWEST ALABAMA

CITY           SKY/WX    TMP DP  RH WIND       PRES   REMARKS
COURTLAND HCN    N/A     57 N/A N/A SE6         N/A
RUSSELLVILLE     N/A     61 N/A N/A MISG        N/A
SHOALS AIRPORT MOCLDY    57  48  72 E7        29.97S
SHOALS TVA RES   N/A     59 N/A N/A MISG        N/A
$$

ALZ005>007-016-211000-
NORTH CENTRAL ALABAMA

CITY           SKY/WX    TMP DP  RH WIND       PRES   REMARKS
CULLMAN AG STN   N/A     57 N/A N/A E6          N/A
DECATUR AP     MOCLDY    61  51  70 SE9       29.99S
HUNTSVILLE AP  MOCLDY    59  51  75 SE10      29.99S
MERIDIANVILLE  PTCLDY    59  46  63 S5        30.01S
REDSTONE ARSN  MOCLDY    62  51  67 S9        29.98F
VINEMONT AP    FAIR      59  49  70 SE7       30.01F
$$

ALZ008>010-211000-
NORTHEAST ALABAMA

CITY           SKY/WX    TMP DP  RH WIND       PRES   REMARKS
ALBERTVILLE    CLOUDY    57  54  88 SE5       30.02S
FORT PAYNE     PTCLDY    59  43  55 SE8       30.05F
SCOTTSBORO AP  PTCLDY    63  48  59 SE5       30.04F
SCOTTSBORO HCN   N/A     61 N/A N/A MISG        N/A
VALLEY HEAD      N/A     59 N/A N/A MISG        N/A
$$

TNZ076-096-097-211000-
SOUTHEASTERN MIDDLE TENNESSEE

CITY           SKY/WX    TMP DP  RH WIND       PRES   REMARKS
TULLAHOMA      CLEAR     61  45  55 SE7       30.02F
$$

...SURROUNDING SITES...

CITY           SKY/WX    TMP DP  RH WIND       PRES   REMARKS
ATLANTA        CLOUDY    58  46  64 SE8       30.11S
ANNISTON       MOCLDY    60  50  69 E5        30.06F
BIRMINGHAM     MOCLDY    64  53  67 SE13      30.01F
CHATTANOOGA    CLOUDY    50  47  89 CALM      30.09S
DALTON         MOCLDY    55  45  67 SW5       30.09S
GADSDEN        PTCLDY    53  50  89 E8        30.04F
GOLDEN TRNGL   CLOUDY    63  52  67 SE10      29.86F
HALEYVILLE     FAIR      60  51  72 S10       29.99S
JACKSON TN     CLOUDY    63  49  60 E3        29.90F
MEMPHIS        LGT RAIN  62  57  83 W6        29.88S
NASHVILLE      CLOUDY    58  45  62 SE8       29.99F
OXFORD MS      LGT RAIN  61  54  77 S10G17    29.93R
ROME           MOCLDY    51  45  79 CALM      30.08S
SAVANNAH       PTCLDY    63  50  63 SE6       29.91F
TUPELO         CLOUDY    64  51  62 E8        29.90F
TUSCALOOSA     CLOUDY    63  53  70 VRB3      29.95F
$$

...GULF COAST WEATHER...

CITY           SKY/WX    TMP DP  RH WIND       PRES   REMARKS
GULFPORT       LGT RAIN  62  61  96 N8        29.98F FOG
PASCAGOULA     RAIN      62  59  90 NW10G20   29.99R FOG
MOBILE         CLOUDY    67  65  93 SE12      29.95F
GULF SHORES    CLOUDY    67  67 100 SE8       29.95F
PENSACOLA      CLOUDY    68  66  93 E7        29.96F
DESTIN         CLOUDY    69  68  96 SE9       29.99F
PANAMA CITY    CLOUDY    62  61  98 E5        30.03S
APPALACHICOLA  MOCLDY    65  65 100 SE7       30.04F
$$




USA.gov is the U.S. government's official web portal to all federal, state and local government web resources and services.